IW2HNF-3 Weather Reports


time (UTC)temp
C
wind
direction
speed
KPH
gust
KPH
rain 1hr
cm
rain 24hr
cm
rain mn
cm
humidity
%
barometer
mb
20260507123526 19 0.0 1.6 0.00 11.20 0.13 69 1011.4
20260507122550 18 0.0 3.2 0.00 11.20 0.13 71 1011.4
20260507121527 18 206 1.6 12.9 0.00 11.20 0.13 78 1011.4
20260507120815 18 0.0 3.2 0.00 11.23 0.13 78 1011.5
20260507115038 18 213 4.8 12.9 0.00 11.23 0.13 76 1011.6
20260507114048 17 0.0 1.6 0.00 11.23 0.13 77 1011.7
20260507113112 17 237 8.0 12.9 0.00 11.23 0.13 83 1011.8
20260507110047 17 282 1.6 8.0 0.00 11.23 0.13 88 1012.1
20260507105111 17 0.0 3.2 0.00 11.23 0.13 88 1012.2
20260507104033 16 135 0.0 3.2 0.00 11.23 0.13 86 1012.3
20260507103057 16 192 1.6 4.8 0.00 11.23 0.13 85 1012.3
20260507102033 16 239 3.2 9.7 0.00 11.23 0.13 84 1012.4
20260507101057 16 306 1.6 4.8 0.00 11.23 0.13 84 1012.4
20260507100745 16 0.0 3.2 0.00 11.23 0.13 92 1012.4
20260507095057 16 0.0 1.6 0.00 11.23 0.13 92 1012.4
20260507094033 16 0.0 0.0 0.00 11.23 0.13 91 1012.4
20260507093059 16 0.0 0.0 0.00 11.23 0.13 90 1012.4
20260507092033 15 0.0 0.0 0.00 11.23 0.13 89 1012.4
20260507091058 15 0.0 0.0 0.00 11.23 0.13 90 1012.4
20260507090033 15 0.0 0.0 0.00 11.23 0.13 90 1012.4
20260507085058 15 0.0 3.2 0.00 11.33 0.13 89 1012.3
20260507084034 15 0.0 0.0 0.00 11.40 0.13 90 1012.3
20260507083057 14 0.0 1.6 0.00 11.46 0.13 92 1012.3
20260507082033 14 0.0 0.0 0.00 11.56 0.13 95 1012.3
20260507081057 13 0.0 0.0 0.00 11.76 0.13 95 1012.2
20260507080747 13 0.0 1.6 0.00 11.86 0.13 96 1012.2
20260507075057 13 0.0 1.6 0.00 11.91 0.13 97 1012.0
20260507074033 13 0.0 1.6 0.00 11.91 0.13 97 1012.0
20260507073057 13 0.0 3.2 0.00 11.94 0.13 97 1011.9
20260507072033 12 0.0 1.6 0.00 11.94 0.13 97 1011.9
20260507071058 12 0.0 1.6 0.00 11.94 0.13 97 1011.9
20260507070035 12 0.0 3.2 0.00 11.94 0.13 97 1011.8
20260507065057 12 0.0 1.6 0.00 11.96 0.13 97 1011.6
20260507064033 12 0.0 1.6 0.00 11.96 0.13 97 1011.6
20260507063057 12 0.0 0.0 0.00 11.96 0.13 98 1011.5
20260507062033 11 0.0 0.0 0.00 11.96 0.13 98 1011.4
20260507061057 11 0.0 1.6 0.00 11.96 0.13 98 1011.4
20260507060745 11 0.0 1.6 0.00 11.99 0.13 99 1011.3
20260507055057 10 0.0 3.2 0.00 11.99 0.13 99 1011.2
20260507054034 10 0.0 1.6 0.00 11.99 0.13 99 1011.1
20260507053058 10 0.0 3.2 0.00 11.99 0.13 99 1010.9
20260507052033 10 0.0 1.6 0.00 11.99 0.13 99 1010.9
20260507051058 10 0.0 3.2 0.00 12.04 0.13 99 1010.8
20260507050033 9 0.0 0.0 0.00 12.06 0.13 99 1010.7
20260507045058 9 0.0 1.6 0.03 12.12 0.13 99 1010.6
20260507044033 9 0.0 1.6 0.05 12.12 0.13 99 1010.5
20260507043057 9 0.0 1.6 0.05 12.12 0.13 99 1010.4
20260507042033 9 0.0 1.6 0.05 12.14 0.13 99 1010.5
20260507041058 10 0.0 0.0 0.05 12.19 0.13 99 1010.4
20260507040746 10 0.0 1.6 0.05 12.19 0.13 99 1010.4
20260507035058 10 0.0 1.6 0.03 12.14 0.10 99 1010.3
20260507034034 10 0.0 0.0 0.00 12.12 0.05 99 1010.4
20260507033057 10 0.0 1.6 0.00 12.12 0.05 99 1010.3
20260507032034 10 0.0 1.6 0.00 12.14 0.05 99 1010.3
20260507031058 10 0.0 1.6 0.00 12.14 0.05 99 1010.2
20260507030033 10 0.0 3.2 0.00 12.19 0.05 99 1010.3
20260507025059 10 0.0 3.2 0.00 12.19 0.05 99 1010.2
20260507024034 10 0.0 3.2 0.00 12.19 0.05 99 1010.2
20260507023058 9 0.0 3.2 0.00 12.22 0.05 99 1010.2
20260507022034 9 0.0 1.6 0.00 12.22 0.05 99 1010.3
20260507021058 9 0.0 1.6 0.00 12.22 0.05 99 1010.3
20260507020746 9 0.0 3.2 0.00 12.22 0.05 99 1010.4
20260507015059 10 0.0 1.6 0.03 12.22 0.05 99 1010.2
20260507014035 10 0.0 0.0 0.05 12.22 0.05 99 1010.2
20260507013058 10 0.0 3.2 0.05 12.22 0.05 99 1010.1
20260507012033 10 0.0 3.2 0.05 12.22 0.05 99 1010.1
20260507011058 10 0.0 3.2 0.05 12.22 0.05 99 1010.1
20260507010034 10 0.0 1.6 0.05 12.22 0.05 99 1010.2
20260507005058 10 0.0 1.6 0.03 12.19 0.03 99 1010.1
20260507004035 10 0.0 0.0 0.00 12.14 0.00 99 1009.9
20260507003058 10 0.0 1.6 0.00 12.14 0.00 99 1009.8
20260507002034 10 0.0 1.6 0.00 12.14 0.00 99 1009.8
20260507001058 10 0.0 0.0 0.00 12.14 0.00 99 1009.9
20260507000747 10 0.0 0.0 0.00 12.14 0.00 99 1009.9
20260506235058 10 0.0 1.6 0.00 12.14 0.00 99 1009.9
20260506234034 10 0.0 1.6 0.00 12.14 0.00 99 1009.9
20260506233059 10 0.0 3.2 0.00 12.14 0.00 99 1009.9
20260506232034 10 0.0 3.2 0.00 12.14 0.00 99 1009.9
20260506231059 10 0.0 3.2 0.00 12.14 0.00 99 1009.8
20260506230034 10 0.0 3.2 0.00 12.14 0.00 99 1009.8
20260506225059 10 0.0 1.6 0.00 12.14 0.00 99 1009.7
20260506224034 10 0.0 1.6 0.00 12.14 0.00 99 1009.6
20260506223059 10 0.0 3.2 0.00 12.14 0.00 99 1009.6
20260506222034 10 0.0 3.2 0.00 12.14 0.00 99 1009.6
20260506221058 10 0.0 1.6 0.00 12.14 0.00 99 1009.6
20260506220746 10 338 0.0 3.2 0.00 12.14 0.00 99 1009.6
20260506215058 10 0.0 3.2 0.00 12.14 12.14 99 1009.5
20260506214035 10 0.0 3.2 0.00 12.14 12.14 99 1009.6
20260506213059 10 0.0 3.2 0.00 12.14 12.14 99 1009.6
20260506212035 10 0.0 3.2 0.00 12.14 12.14 99 1009.5
20260506211058 9 0.0 1.6 0.00 12.14 12.14 99 1009.4
20260506210034 9 0.0 1.6 0.00 12.14 12.14 99 1009.2
20260506205059 9 0 0.0 3.2 0.00 12.14 12.14 99 1009.3
20260506204034 10 0.0 1.6 0.00 12.14 12.14 99 1009.2
20260506203058 10 0.0 3.2 0.00 12.14 12.14 99 1009.2
20260506202035 10 0.0 3.2 0.00 12.14 12.14 99 1009.1
20260506201059 10 0.0 3.2 0.00 12.19 12.14 99 1009.2
20260506200747 10 0.0 3.2 0.00 12.22 12.14 99 1009.1
20260506195059 10 0.0 1.6 0.00 12.22 12.14 99 1008.9
20260506194034 10 0.0 3.2 0.03 12.24 12.14 99 1008.7
20260506193058 10 0.0 1.6 0.10 12.24 12.14 99 1008.5
20260506192035 10 0.0 0.0 0.30 12.24 12.14 99 1008.2
20260506191059 10 0.0 3.2 0.71 12.24 12.14 99 1008.0
20260506190035 10 339 1.6 4.8 0.76 12.24 12.14 99 1007.5
20260506185059 10 45 0.0 4.8 0.76 12.24 12.14 99 1007.3
20260506184035 10 90 0.0 3.2 0.71 12.22 12.12 99 1008.2
20260506183059 10 0.0 3.2 0.66 12.14 12.06 99 1008.9
20260506182035 10 248 0.0 4.8 0.46 11.94 11.86 99 1008.9
20260506181059 10 0.0 1.6 0.03 11.53 11.43 99 1008.0
20260506180347 10 0.0 0.0 0.00 11.48 11.40 99 1007.4
20260506175059 10 0.0 1.6 0.00 11.48 11.40 99 1007.1
20260506174034 11 0.0 0.0 0.00 11.48 11.40 99 1007.0
20260506173100 11 0.0 0.0 0.00 11.48 11.40 99 1006.8
20260506172035 11 0.0 1.6 0.00 11.48 11.40 99 1006.7
20260506171059 11 0.0 0.0 0.00 11.53 11.40 99 1006.5
20260506170035 11 0.0 0.0 0.00 11.56 11.40 99 1006.6
20260506165059 11 0.0 1.6 0.00 11.56 11.40 99 1006.5
20260506164035 11 0.0 0.0 0.00 11.56 11.40 99 1006.5
20260506163100 11 0.0 1.6 0.00 11.58 11.40 99 1006.4
20260506162034 11 0.0 1.6 0.00 11.58 11.40 99 1005.8
20260506161058 11 0 0.0 3.2 0.00 11.61 11.40 99 1005.4
20260506160259 11 0.0 3.2 0.00 11.61 11.40 99 1005.3
20260506155100 11 0.0 3.2 0.23 11.63 11.40 98 1005.5
20260506154035 11 0.0 3.2 0.56 11.71 11.40 98 1005.6
20260506153101 11 0.0 3.2 1.09 11.73 11.40 98 1005.9
20260506152035 11 0.0 3.2 1.75 11.79 11.40 99 1005.9
20260506151059 11 0.0 1.6 2.51 11.81 11.40 99 1005.8
20260506150035 11 0.0 3.2 3.15 11.81 11.40 99 1005.8
20260506145059 10 0.0 1.6 4.80 11.61 11.15 99 1006.2
20260506144035 10 0.0 1.6 7.49 11.28 10.82 99 1006.4
20260506143059 10 0 0.0 3.2 8.74 10.77 10.31 99 1006.3
20260506142035 9 0.0 3.2 8.43 10.11 9.65 99 1006.1
20260506141100 10 341 0.0 6.4 7.75 9.32 8.89 98 1006.1
20260506140123 10 88 0.0 6.4 7.11 8.71 8.26 95 1006.2
20260506135059 11 7 3.2 17.7 5.28 6.81 6.35 92 1006.5
20260506134035 13 0.0 3.2 2.26 3.78 3.33 90 1006.5
20260506133101 15 0.0 1.6 0.51 2.03 1.60 88 1006.2
20260506132035 15 0.0 1.6 0.15 1.70 1.22 88 1006.2
20260506131059 15 0.0 1.6 0.05 1.63 1.14 88 1006.3
20260506130035 15 0.0 1.6 0.10 1.63 1.14 88 1006.3
20260506125059 15 0.0 1.6 0.03 1.55 1.09 88 1006.5